This is the latest recevied weather packets stored in our database for station/object IK4NOW-13. If no packets are shown the sender has not sent any weather packets the latest 10 day(s).
| Time | Temp. | Humidity | Pressure | Rain* | Wind** | Luminosity | Snow |
|---|---|---|---|---|---|---|---|
| 1777759186 | 13.33° C | 53% | 1021.8 hPa | - | - | - | - |
| 1777756481 | 13.89° C | 52% | 1021.9 hPa | - | - | - | - |
| 1777753776 | 16.11° C | 50% | 1021.9 hPa | - | - | - | - |
| 1777751071 | 16.67° C | 49% | 1022 hPa | - | - | - | - |
| 1777748366 | 17.78° C | 48% | 1021.7 hPa | - | - | - | - |
| 1777745661 | 19.44° C | 47% | 1021.6 hPa | - | - | - | - |
| 1777742955 | 20.56° C | 47% | 1021.6 hPa | - | - | - | - |
| 1777740250 | 21.67° C | 47% | 1021.9 hPa | - | - | - | - |
| 1777737545 | 22.22° C | 47% | 1022.3 hPa | - | - | - | - |
| 1777734840 | 22.22° C | 46% | 1022.7 hPa | - | - | - | - |
| 1777733654 | 22.22° C | 47% | 1022.9 hPa | - | - | - | - |
| 1777730949 | 22.78° C | 47% | 1023.4 hPa | - | - | - | - |
| 1777728244 | 23.33° C | 46% | 1024 hPa | - | - | - | - |
| 1777725538 | 22.78° C | 46% | 1024.4 hPa | - | - | - | - |
| 1777722833 | 22.22° C | 46% | 1024.8 hPa | - | - | - | - |
| 1777720128 | 21.67° C | 47% | 1025.6 hPa | - | - | - | - |
| 1777717423 | 21.11° C | 47% | 1026.1 hPa | - | - | - | - |
| 1777714718 | 20.56° C | 49% | 1026.5 hPa | - | - | - | - |
| 1777712013 | 19.44° C | 51% | 1026.8 hPa | - | - | - | - |
| 1777709309 | 18.33° C | 52% | 1027 hPa | - | - | - | - |
| 1777706604 | 17.22° C | 54% | 1027.2 hPa | - | - | - | - |
| 1777703899 | 17.22° C | 57% | 1027.2 hPa | - | - | - | - |
| 1777701195 | 10.56° C | 60% | 1027.3 hPa | - | - | - | - |
| 1777698490 | 8.33° C | 57% | 1027.4 hPa | - | - | - | - |
| 1777695785 | 7.78° C | 57% | 1027.1 hPa | - | - | - | - |
* Rain since midnight (hover to see other rain measurements)
** Current wind speed in m/s (hover to see current wind gust speed)